| time (UTC) | temp F | wind direction | speed MPH | gust MPH | rain 1hr in | rain 24hr in | rain mn in | humidity % | barometer mb |
| 20260507153907 | 62 | 315 | 6.0 | 11.0 | 0.00 | 0.01 | 0.01 | 51 | 1013.4 |
| 20260507152455 | 63 | 270 | 3.0 | 11.0 | 0.00 | 0.01 | 0.01 | 52 | 1013.3 |
| 20260507151110 | 63 | 270 | 3.0 | 11.0 | 0.00 | 0.01 | 0.01 | 52 | 1013.3 |
| 20260507145657 | 62 | 0 | 7.0 | 16.0 | 0.00 | 0.01 | 0.01 | 58 | 1013.5 |
| 20260507144410 | 62 | 0 | 7.0 | 16.0 | 0.00 | 0.01 | 0.01 | 58 | 1013.5 |
| 20260507142945 | 62 | 270 | 7.0 | 16.0 | 0.00 | 0.01 | 0.01 | 51 | 1013.6 |
| 20260507141535 | 62 | 270 | 7.0 | 16.0 | 0.00 | 0.01 | 0.01 | 51 | 1013.6 |
| 20260507140224 | 61 | 270 | 10.0 | 16.0 | 0.00 | 0.01 | 0.01 | 57 | 1013.7 |
| 20260507134857 | 61 | 270 | 10.0 | 16.0 | 0.00 | 0.01 | 0.01 | 57 | 1013.7 |
| 20260507133540 | 58 | 270 | 8.0 | 15.0 | 0.00 | 0.01 | 0.01 | 64 | 1014.2 |
| 20260507132307 | 58 | 270 | 8.0 | 15.0 | 0.00 | 0.01 | 0.01 | 64 | 1014.2 |
| 20260507130945 | 58 | 270 | 8.0 | 15.0 | 0.00 | 0.01 | 0.01 | 64 | 1014.2 |
| 20260507125705 | 58 | 270 | 8.0 | 15.0 | 0.00 | 0.01 | 0.01 | 64 | 1014.2 |
| 20260507124330 | 58 | 270 | 8.0 | 15.0 | 0.00 | 0.01 | 0.01 | 64 | 1014.2 |
| 20260507123004 | 58 | 270 | 7.0 | 13.0 | 0.00 | 0.01 | 0.01 | 66 | 1014.4 |
| 20260507121746 | 58 | 270 | 7.0 | 13.0 | 0.00 | 0.01 | 0.01 | 66 | 1014.4 |
| 20260507120335 | 56 | 270 | 8.0 | 15.0 | 0.00 | 0.01 | 0.01 | 68 | 1014.7 |
| 20260507115015 | 56 | 270 | 8.0 | 15.0 | 0.00 | 0.01 | 0.01 | 68 | 1014.7 |
| 20260507113630 | 56 | 270 | 8.0 | 15.0 | 0.00 | 0.01 | 0.01 | 68 | 1014.7 |
| 20260507112144 | 55 | 270 | 7.0 | 15.0 | 0.00 | 0.01 | 0.01 | 71 | 1014.9 |
| 20260507110835 | 55 | 270 | 7.0 | 15.0 | 0.00 | 0.01 | 0.01 | 71 | 1014.9 |
| 20260507105519 | 55 | 270 | 7.0 | 14.0 | 0.00 | 0.01 | 0.01 | 75 | 1014.8 |
| 20260507104305 | 55 | 270 | 7.0 | 14.0 | 0.00 | 0.01 | 0.01 | 75 | 1014.8 |
| 20260507103025 | 55 | 270 | 7.0 | 14.0 | 0.00 | 0.01 | 0.01 | 75 | 1014.8 |
| 20260507101715 | 55 | 270 | 7.0 | 14.0 | 0.00 | 0.01 | 0.01 | 75 | 1014.8 |
| 20260507100335 | 52 | 270 | 7.0 | 15.0 | 0.00 | 0.01 | 0.01 | 82 | 1015.0 |
| 20260507094928 | 52 | 270 | 7.0 | 15.0 | 0.00 | 0.01 | 0.01 | 82 | 1015.0 |
| 20260507093505 | 52 | 270 | 7.0 | 15.0 | 0.00 | 0.01 | 0.01 | 81 | 1014.9 |
| 20260507092200 | 52 | 270 | 7.0 | 15.0 | 0.00 | 0.01 | 0.01 | 81 | 1014.9 |
| 20260507090910 | 52 | 270 | 7.0 | 15.0 | 0.00 | 0.01 | 0.01 | 81 | 1014.9 |
| 20260507085610 | 51 | 270 | 6.0 | 16.0 | 0.01 | 0.01 | 0.01 | 86 | 1014.9 |
| 20260507084345 | 51 | 270 | 6.0 | 16.0 | 0.01 | 0.01 | 0.01 | 86 | 1014.9 |
| 20260507083034 | 50 | 270 | 9.0 | 16.0 | 0.00 | 0.01 | 0.04 | 86 | 1014.4 |
| 20260507081657 | 50 | 270 | 9.0 | 16.0 | 0.00 | 0.01 | 0.04 | 86 | 1014.4 |
| 20260507080408 | 50 | 270 | 9.0 | 16.0 | 0.00 | 0.01 | 0.04 | 86 | 1014.4 |
| 20260507075115 | 50 | 270 | 9.0 | 16.0 | 0.00 | 0.01 | 0.04 | 86 | 1014.4 |
| 20260507073745 | 50 | 270 | 9.0 | 16.0 | 0.00 | 0.01 | 0.04 | 86 | 1014.4 |
| 20260507072309 | 50 | 270 | 9.0 | 16.0 | 0.00 | 0.01 | 0.04 | 86 | 1014.4 |
| 20260507071005 | 50 | 270 | 9.0 | 16.0 | 0.00 | 0.01 | 0.04 | 86 | 1014.4 |
| 20260507065637 | 49 | 225 | 8.0 | 13.0 | 0.01 | 0.01 | 0.04 | 88 | 1014.3 |
| 20260507064305 | 49 | 225 | 8.0 | 13.0 | 0.01 | 0.01 | 0.04 | 88 | 1014.3 |
| 20260507062937 | 48 | 270 | 5.0 | 9.0 | 0.01 | 0.03 | 0.03 | 91 | 1014.1 |
| 20260507061554 | 48 | 270 | 5.0 | 9.0 | 0.01 | 0.03 | 0.03 | 91 | 1014.1 |
| 20260507060220 | 48 | 225 | 6.0 | 14.0 | 0.02 | 0.02 | 0.02 | 89 | 1013.7 |
| 20260507054957 | 48 | 225 | 6.0 | 14.0 | 0.02 | 0.02 | 0.02 | 89 | 1013.7 |
| 20260507053615 | 48 | 225 | 6.0 | 14.0 | 0.02 | 0.02 | 0.02 | 89 | 1013.7 |
| 20260507052235 | 49 | 225 | 7.0 | 14.0 | 0.00 | 0.00 | 0.00 | 84 | 1013.3 |
| 20260507050825 | 49 | 225 | 7.0 | 14.0 | 0.00 | 0.00 | 0.00 | 84 | 1013.3 |
| 20260507045435 | 49 | 225 | 7.0 | 14.0 | 0.00 | 0.00 | 0.00 | 84 | 1013.2 |
| 20260507044105 | 49 | 225 | 7.0 | 14.0 | 0.00 | 0.00 | 0.00 | 84 | 1013.2 |
| 20260507042750 | 48 | 225 | 6.0 | 10.0 | 0.00 | 0.00 | 0.00 | 86 | 1013.2 |
| 20260507041420 | 48 | 225 | 6.0 | 10.0 | 0.00 | 0.00 | 0.00 | 86 | 1013.2 |
| 20260507040052 | 48 | 225 | 2.0 | 9.0 | 0.00 | 0.00 | 0.00 | 88 | 1013.0 |
| 20260507034800 | 48 | 225 | 2.0 | 9.0 | 0.00 | 0.00 | 0.00 | 88 | 1013.0 |
| 20260507033410 | 47 | 225 | 2.0 | 4.0 | 0.00 | 0.00 | 0.00 | 90 | 1013.0 |
| 20260507032030 | 47 | 225 | 2.0 | 4.0 | 0.00 | 0.00 | 0.00 | 90 | 1013.0 |
| 20260507030635 | 47 | 225 | 2.0 | 4.0 | 0.00 | 0.00 | 0.00 | 90 | 1013.0 |
| 20260507025255 | 47 | 180 | 2.0 | 8.0 | 0.00 | 0.00 | 0.00 | 91 | 1012.8 |
| 20260507024015 | 47 | 180 | 2.0 | 8.0 | 0.00 | 0.00 | 0.00 | 91 | 1012.8 |
| 20260507022650 | 46 | 225 | 2.0 | 5.0 | 0.00 | 0.00 | 0.00 | 92 | 1012.8 |
| 20260507021350 | 46 | 225 | 2.0 | 5.0 | 0.00 | 0.00 | 0.00 | 92 | 1012.8 |
| 20260507020010 | 46 | 225 | 1.0 | 4.0 | 0.00 | 0.00 | 0.00 | 95 | 1012.8 |
| 20260507014730 | 46 | 225 | 1.0 | 4.0 | 0.00 | 0.00 | 0.00 | 95 | 1012.8 |
| 20260507013425 | 45 | 90 | 1.0 | 4.0 | 0.00 | 0.00 | 0.00 | 95 | 1012.7 |
| 20260507012050 | 45 | 90 | 1.0 | 4.0 | 0.00 | 0.00 | 0.00 | 95 | 1012.7 |
| 20260507010648 | 45 | 90 | 1.0 | 4.0 | 0.00 | 0.00 | 0.00 | 95 | 1012.7 |
| 20260507005336 | 44 | 90 | 2.0 | 4.0 | 0.00 | 0.00 | 0.00 | 97 | 1012.5 |
| 20260507004025 | 44 | 90 | 2.0 | 4.0 | 0.00 | 0.00 | 0.00 | 97 | 1012.5 |
| 20260507002755 | 44 | 90 | 2.0 | 4.0 | 0.00 | 0.00 | 0.00 | 97 | 1012.5 |
| 20260507001420 | 44 | 90 | 2.0 | 4.0 | 0.00 | 0.00 | 0.00 | 97 | 1012.5 |
| 20260507000040 | 45 | 315 | 2.0 | 4.0 | 0.00 | 0.00 | 0.00 | 94 | 1012.3 |
| 20260506234650 | 45 | 315 | 2.0 | 4.0 | 0.00 | 0.00 | 0.00 | 94 | 1012.3 |
| 20260506233425 | 45 | 315 | 2.0 | 4.0 | 0.00 | 0.00 | 0.00 | 94 | 1012.3 |
| 20260506232135 | 45 | 315 | 2.0 | 4.0 | 0.00 | 0.00 | 0.00 | 94 | 1012.3 |
| 20260506230820 | 45 | 315 | 2.0 | 4.0 | 0.00 | 0.00 | 0.00 | 94 | 1012.3 |
| 20260506225455 | 49 | 225 | 3.0 | 13.0 | 0.00 | 0.27 | 0.27 | 86 | 1011.6 |
| 20260506224200 | 49 | 225 | 3.0 | 13.0 | 0.00 | 0.27 | 0.27 | 86 | 1011.6 |
| 20260506222750 | 49 | 225 | 3.0 | 13.0 | 0.00 | 0.27 | 0.27 | 86 | 1011.6 |
| 20260506221400 | 49 | 225 | 3.0 | 13.0 | 0.00 | 0.27 | 0.27 | 86 | 1011.6 |
| 20260506220145 | 49 | 225 | 3.0 | 13.0 | 0.00 | 0.27 | 0.27 | 86 | 1011.6 |
| 20260506214840 | 49 | 225 | 3.0 | 13.0 | 0.00 | 0.27 | 0.27 | 86 | 1011.6 |
| 20260506213530 | 50 | 225 | 9.0 | 14.0 | 0.00 | 0.27 | 0.27 | 81 | 1011.2 |
| 20260506212130 | 50 | 225 | 9.0 | 14.0 | 0.00 | 0.27 | 0.27 | 81 | 1011.2 |
| 20260506210835 | 50 | 225 | 9.0 | 14.0 | 0.00 | 0.27 | 0.27 | 81 | 1011.2 |
| 20260506205430 | 50 | 225 | 9.0 | 14.0 | 0.00 | 0.27 | 0.27 | 81 | 1011.2 |
| 20260506204040 | 50 | 225 | 9.0 | 14.0 | 0.00 | 0.27 | 0.27 | 81 | 1011.2 |
| 20260506202720 | 50 | 225 | 7.0 | 11.0 | 0.00 | 0.27 | 0.27 | 82 | 1010.8 |
| 20260506201420 | 50 | 225 | 7.0 | 11.0 | 0.00 | 0.27 | 0.27 | 82 | 1010.8 |
| 20260506200140 | 50 | 270 | 4.0 | 18.0 | 0.00 | 0.27 | 0.27 | 83 | 1010.5 |
| 20260506194709 | 50 | 270 | 4.0 | 18.0 | 0.00 | 0.27 | 0.27 | 83 | 1010.5 |
| 20260506193325 | 51 | 225 | 9.0 | 18.0 | 0.00 | 0.27 | 0.27 | 81 | 1010.2 |
| 20260506191939 | 51 | 225 | 9.0 | 18.0 | 0.00 | 0.27 | 0.27 | 81 | 1010.2 |
| 20260506190705 | 51 | 225 | 9.0 | 18.0 | 0.00 | 0.27 | 0.27 | 81 | 1010.2 |
| 20260506185224 | 52 | 225 | 9.0 | 17.0 | 0.00 | 0.27 | 0.27 | 80 | 1009.6 |
| 20260506183840 | 52 | 225 | 9.0 | 17.0 | 0.00 | 0.27 | 0.27 | 80 | 1009.6 |
| 20260506182504 | 52 | 225 | 9.0 | 17.0 | 0.00 | 0.27 | 0.27 | 80 | 1009.6 |
| 20260506181122 | 52 | 225 | 9.0 | 17.0 | 0.00 | 0.27 | 0.27 | 80 | 1009.6 |
| 20260506175824 | 52 | 270 | 10.0 | 19.0 | 0.00 | 0.27 | 0.27 | 81 | 1009.2 |
| 20260506174442 | 52 | 270 | 10.0 | 19.0 | 0.00 | 0.27 | 0.27 | 81 | 1009.2 |
| 20260506173135 | 52 | 270 | 11.0 | 19.0 | 0.00 | 0.27 | 0.27 | 81 | 1008.9 |
| 20260506171805 | 52 | 270 | 11.0 | 19.0 | 0.00 | 0.27 | 0.27 | 81 | 1008.9 |
| 20260506170444 | 52 | 270 | 11.0 | 19.0 | 0.00 | 0.27 | 0.27 | 81 | 1008.9 |
| 20260506165110 | 52 | 270 | 11.0 | 19.0 | 0.00 | 0.27 | 0.27 | 81 | 1008.9 |
| 20260506163745 | 52 | 270 | 11.0 | 19.0 | 0.00 | 0.27 | 0.27 | 81 | 1008.9 |
| 20260506162329 | 51 | 270 | 7.0 | 14.0 | 0.00 | 0.27 | 0.27 | 84 | 1009.3 |
| 20260506160955 | 51 | 270 | 7.0 | 14.0 | 0.00 | 0.27 | 0.27 | 84 | 1009.3 |
| 20260506155535 | 50 | 270 | 14.0 | 30.0 | 0.10 | 0.27 | 0.27 | 90 | 1009.2 |